Location: Bun Machan
(52.1403°N, 7.3744°W)
Time: 01:44:16
(UTC+00:00)

Cosmos 1821 Rocket - Pass Details

Date: 14 July 2020
Orbit: 946 x 1004 km, 82.9° (Epoch: 11 August)

Event Time Altitude Azimuth Distance (km) Brightness Sun altitude
Exits shadow 00:41:33 21° 207° (SSW) 1,987 5.1 -16.2°
Maximum altitude 00:45:42 63° 284° (WNW) 1,051 4.2 -16.2°
Drops below altitude 10° 00:51:46 10° 6° (N) 2,682 7.7 -16.1°
Sets 00:54:19 0° 9° (N) 3,634 8.8 -16.1°
